This is the latest recevied weather packets stored in our database for station/object LA5PPA-1. If no packets are shown the sender has not sent any weather packets the latest 1 day(s).
| Time | Temp. | Humidity | Pressure | Rain* | Wind** | Luminosity | Snow |
|---|---|---|---|---|---|---|---|
| 1777984616 | 1.11° C | 42% | 1014.1 hPa | 0 mm | 2.68 m/s, 337° | - | - |
| 1777984497 | 1.11° C | 44% | 1014.1 hPa | 0 mm | 1.79 m/s, 271° | - | - |
| 1777984316 | 0.56° C | 41% | 1014 hPa | 0 mm | 0.89 m/s, 271° | - | - |
| 1777984016 | 1.11° C | 41% | 1014 hPa | 0 mm | 2.68 m/s, 324° | - | - |
| 1777983837 | 1.11° C | 43% | 1014.1 hPa | 0 mm | 4.02 m/s, 316° | - | - |
| 1777983716 | 1.11° C | 41% | 1014.1 hPa | 0 mm | 6.26 m/s, 309° | - | - |
| 1777983416 | 1.11° C | 42% | 1014 hPa | 0 mm | 0 m/s | - | - |
| 1777983177 | 1.11° C | 42% | 1014 hPa | 0 mm | 2.68 m/s, 291° | - | - |
| 1777983116 | 1.11° C | 44% | 1014 hPa | 0 mm | 4.02 m/s, 293° | - | - |
| 1777982816 | 0.56° C | 47% | 1013.9 hPa | 0 mm | 1.34 m/s, 307° | - | - |
| 1777982516 | 0.56° C | 44% | 1014 hPa | 0 mm | 2.68 m/s, 288° | - | - |
| 1777982216 | 0.56° C | 44% | 1014 hPa | 0 mm | 3.13 m/s, 278° | - | - |
| 1777981916 | 0.56° C | 45% | 1013.8 hPa | 0 mm | 3.58 m/s, 253° | - | - |
| 1777981857 | 0.56° C | 46% | 1013.9 hPa | 0 mm | 3.13 m/s, 300° | - | - |
| 1777981616 | 1.11° C | 40% | 1014 hPa | 0 mm | 1.34 m/s, 316° | - | - |
| 1777981316 | 1.11° C | 46% | 1013.8 hPa | 0 mm | 1.34 m/s, 292° | - | - |
| 1777981197 | 1.11° C | 46% | 1013.9 hPa | 0 mm | 1.79 m/s, 334° | - | - |
| 1777981016 | 0.56° C | 46% | 1013.9 hPa | 0 mm | 1.79 m/s, 264° | - | - |
| 1777980716 | 1.11° C | 44% | 1013.9 hPa | 0 mm | 0.89 m/s, 299° | - | - |
| 1777980537 | 1.11° C | 43% | 1013.9 hPa | 0 mm | 3.58 m/s, 295° | - | - |
| 1777980416 | 1.11° C | 45% | 1013.9 hPa | 0 mm | 1.34 m/s, 288° | - | - |
| 1777980116 | 1.11° C | 43% | 1014 hPa | 0 mm | 2.68 m/s, 310° | - | - |
| 1777979877 | 1.11° C | 46% | 1013.9 hPa | 0 mm | 3.13 m/s, 300° | - | - |
| 1777979816 | 1.11° C | 44% | 1013.9 hPa | 0 mm | 0.89 m/s, 289° | - | - |
| 1777979516 | 0.56° C | 46% | 1013.9 hPa | 0 mm | 2.68 m/s, 286° | - | - |
* Rain latest hour (hover to see other rain measurements)
** Current wind speed in m/s (hover to see current wind gust speed)